This is the latest recevied weather packets stored in our database for station/object N9ALD. If no packets are shown the sender has not sent any weather packets the latest 10 day(s).
| Time | Temp. | Humidity | Pressure | Rain* | Wind** | Luminosity | Snow |
|---|---|---|---|---|---|---|---|
| 1777580792 | 15.56° C | 43% | 1012.6 hPa | 0 mm | - | 190 W/m² | - |
| 1777580488 | 16.11° C | 44% | 1012.7 hPa | 0 mm | - | 164 W/m² | - |
| 1777580183 | 16.11° C | 42% | 1012.8 hPa | 0 mm | - | 578 W/m² | - |
| 1777579880 | 16.67° C | 44% | 1013 hPa | 0 mm | - | 274 W/m² | - |
| 1777579580 | 16.67° C | 44% | 1012.9 hPa | 0 mm | - | 335 W/m² | - |
| 1777579274 | 16.67° C | 43% | 1013 hPa | 0 mm | - | 761 W/m² | - |
| 1777578970 | 16.11° C | 47% | 1013 hPa | 0 mm | - | 758 W/m² | - |
| 1777578665 | 15.56° C | 45% | 1013.2 hPa | 0 mm | - | 761 W/m² | - |
| 1777578364 | 15.56° C | 50% | 1013 hPa | 0 mm | - | 737 W/m² | - |
| 1777578061 | 15.56° C | 49% | 1013 hPa | 0 mm | - | 265 W/m² | - |
| 1777577755 | 15.56° C | 47% | 1013.2 hPa | 0 mm | - | 207 W/m² | - |
| 1777577452 | 15.56° C | 48% | 1013.2 hPa | 0 mm | - | 738 W/m² | - |
| 1777577150 | 15° C | 54% | 1013.3 hPa | 0 mm | - | 723 W/m² | - |
| 1777576846 | 15° C | 46% | 1013.3 hPa | 0 mm | - | 653 W/m² | - |
| 1777576544 | 15.56° C | 43% | 1013.3 hPa | 0 mm | - | 165 W/m² | - |
| 1777576241 | 15.56° C | 44% | 1013.5 hPa | 0 mm | - | 827 W/m² | - |
| 1777575937 | 15.56° C | 48% | 1013.5 hPa | 0 mm | - | 818 W/m² | - |
| 1777575634 | 15.56° C | 45% | 1013.6 hPa | 0 mm | - | 827 W/m² | - |
| 1777575330 | 15° C | 47% | 1013.7 hPa | 0 mm | - | 777 W/m² | - |
| 1777575026 | 15° C | 54% | 1013.5 hPa | 0 mm | - | 790 W/m² | - |
| 1777574722 | 15° C | 49% | 1013.5 hPa | 0 mm | - | 841 W/m² | - |
| 1777574420 | 15° C | 51% | 1013.6 hPa | 0 mm | - | 903 W/m² | - |
| 1777574115 | 15° C | 46% | 1013.5 hPa | 0 mm | - | 896 W/m² | - |
| 1777573811 | 14.44° C | 51% | 1013.5 hPa | 0 mm | - | 857 W/m² | - |
| 1777573506 | 14.44° C | 47% | 1013.5 hPa | 0 mm | - | 818 W/m² | - |
* Rain latest hour (hover to see other rain measurements)
** Current wind speed in m/s (hover to see current wind gust speed)